When you browse on this site, cookies collect data to enhance your experience and personalize the content and advertising you see.
Visit our Privacy Policy to learn more. By continuing to use the site, you agree to this use of cookies and data.
  • In United Kingdom
  • List of Countries
  • For 7 days
  • Water Temperature
  • Weather Map
  • Weather Widgets
  • user-avatar
    Login

    Hourly Weather Bracknell

    Today, 6 June, Saturday

    Time Temperature Precipitation Wind Pressure Humidity
    00:00 +5°C° 0 mm 4 mps 742 mmHg 86%
    01:00 +5°C° 0 mm 4 mps 742 mmHg 86%
    02:00 +5°C° 0 mm 5 mps 742 mmHg 85%
    03:00 +3°C° 0 mm 5 mps 742 mmHg 84%
    04:00 +4°C° 0 mm 6 mps 742 mmHg 79%
    05:00 +5°C° 0 mm 7 mps 742 mmHg 74%
    06:00 +6°C° 0 mm 8 mps 742 mmHg 71%
    07:00 +7°C° 0 mm 8 mps 742 mmHg 67%
    08:00 +8°C° 0 mm 9 mps 742 mmHg 64%
    09:00 +10°C° 0 mm 9 mps 742 mmHg 60%
    10:00 +10°C° 0.1 mm 9 mps 742 mmHg 65%
    11:00 +10°C° 0.1 mm 9 mps 742 mmHg 70%
    12:00 +9°C° 0 mm 8 mps 742 mmHg 76%
    13:00 +10°C° 0.1 mm 8 mps 742 mmHg 78%
    14:00 +10°C° 0.1 mm 8 mps 742 mmHg 79%
    15:00 +11°C° 0.1 mm 8 mps 742 mmHg 81%
    16:00 +11°C° 0.5 mm 7 mps 742 mmHg 81%
    17:00 +11°C° 0.5 mm 7 mps 742 mmHg 82%
    18:00 +11°C° 0.5 mm 6 mps 742 mmHg 82%
    19:00 +10°C° 0.2 mm 5 mps 743 mmHg 85%
    20:00 +10°C° 0.2 mm 4 mps 744 mmHg 87%
    21:00 +9°C° 0.2 mm 3 mps 744 mmHg 89%
    22:00 +8°C° 0 mm 3 mps 744 mmHg 90%
    23:00 +8°C° 0 mm 3 mps 745 mmHg 91%

    Tomorrow, 7 June, Sunday

    Time Temperature Precipitation Wind Pressure Humidity
    00:00 +7°C° 0 mm 2 mps 745 mmHg 93%
    01:00 +7°C° 0 mm 2 mps 745 mmHg 93%
    02:00 +6°C° 0 mm 2 mps 746 mmHg 94%
    03:00 +6°C° 0 mm 2 mps 746 mmHg 95%
    04:00 +7°C° 0 mm 2 mps 746 mmHg 94%
    05:00 +8°C° 0 mm 2 mps 747 mmHg 92%
    06:00 +9°C° 0 mm 2 mps 747 mmHg 91%
    07:00 +10°C° 0 mm 2 mps 748 mmHg 85%
    08:00 +12°C° 0 mm 3 mps 748 mmHg 79%
    09:00 +14°C° 0 mm 3 mps 749 mmHg 73%
    10:00 +16°C° 0.1 mm 3 mps 749 mmHg 69%
    11:00 +16°C° 0.1 mm 3 mps 749 mmHg 65%
    12:00 +17°C° 0.1 mm 3 mps 749 mmHg 62%
    13:00 +17°C° 0.4 mm 4 mps 750 mmHg 68%
    14:00 +15°C° 0.4 mm 4 mps 750 mmHg 74%
    15:00 +14°C° 0.4 mm 4 mps 750 mmHg 81%
    16:00 +14°C° 0.2 mm 4 mps 750 mmHg 81%
    17:00 +14°C° 0.2 mm 5 mps 751 mmHg 81%
    18:00 +13°C° 0.2 mm 5 mps 751 mmHg 82%
    19:00 +12°C° 0 mm 4 mps 752 mmHg 84%
    20:00 +11°C° 0 mm 4 mps 752 mmHg 87%
    21:00 +10°C° 0 mm 3 mps 753 mmHg 90%
    22:00 +9°C° 0 mm 3 mps 753 mmHg 91%
    23:00 +9°C° 0 mm 3 mps 753 mmHg 92%

    Day after tomorrow, 8 June, Monday

    Time Temperature Precipitation Wind Pressure Humidity
    00:00 +8°C° 0 mm 3 mps 754 mmHg 93%
    01:00 +8°C° 0 mm 3 mps 754 mmHg 93%
    02:00 +8°C° 0 mm 3 mps 754 mmHg 93%
    03:00 +7°C° 0 mm 3 mps 754 mmHg 93%
    04:00 +8°C° 0 mm 3 mps 755 mmHg 91%
    05:00 +7°C° 0 mm 4 mps 755 mmHg 89%
    06:00 +7°C° 0 mm 4 mps 755 mmHg 88%
    07:00 +10°C° 0 mm 4 mps 756 mmHg 80%
    08:00 +11°C° 0 mm 4 mps 756 mmHg 73%
    09:00 +13°C° 0 mm 4 mps 756 mmHg 65%
    10:00 +13°C° 0 mm 4 mps 756 mmHg 62%
    11:00 +14°C° 0 mm 5 mps 756 mmHg 59%
    12:00 +15°C° 0 mm 5 mps 757 mmHg 56%
    13:00 +15°C° 0 mm 5 mps 757 mmHg 56%
    14:00 +15°C° 0 mm 5 mps 757 mmHg 57%
    15:00 +15°C° 0 mm 5 mps 757 mmHg 57%
    16:00 +14°C° 0 mm 5 mps 757 mmHg 59%
    17:00 +14°C° 0 mm 5 mps 757 mmHg 61%
    18:00 +13°C° 0 mm 4 mps 757 mmHg 64%
    19:00 +11°C° 0 mm 4 mps 757 mmHg 68%
    20:00 +10°C° 0 mm 3 mps 757 mmHg 72%
    21:00 +9°C° 0 mm 2 mps 758 mmHg 76%
    22:00 +8°C° 0 mm 2 mps 758 mmHg 78%
    23:00 +7°C° 0 mm 2 mps 758 mmHg 80%

    9 June, Tuesday

    Time Temperature Precipitation Wind Pressure Humidity
    00:00 +8°C° 0 mm 1 mps 758 mmHg 82%
    01:00 +7°C° 0 mm 1 mps 758 mmHg 84%
    02:00 +7°C° 0 mm 1 mps 758 mmHg 85%
    03:00 +6°C° 0 mm 1 mps 758 mmHg 86%
    04:00 +7°C° 0 mm 1 mps 758 mmHg 83%
    05:00 +8°C° 0 mm 1 mps 758 mmHg 79%
    06:00 +9°C° 0 mm 1 mps 758 mmHg 75%
    07:00 +11°C° 0 mm 1 mps 758 mmHg 69%
    08:00 +13°C° 0 mm 2 mps 759 mmHg 63%
    09:00 +14°C° 0 mm 2 mps 759 mmHg 57%
    10:00 +15°C° 0 mm 2 mps 759 mmHg 56%
    11:00 +16°C° 0 mm 2 mps 759 mmHg 55%
    12:00 +16°C° 0 mm 2 mps 759 mmHg 54%
    13:00 +17°C° 0 mm 2 mps 759 mmHg 55%
    14:00 +18°C° 0 mm 1 mps 758 mmHg 55%
    15:00 +18°C° 0 mm 1 mps 758 mmHg 56%
    16:00 +18°C° 0 mm 1 mps 758 mmHg 59%
    17:00 +18°C° 0 mm 1 mps 758 mmHg 61%
    18:00 +16°C° 0 mm 1 mps 758 mmHg 64%
    19:00 +15°C° 0 mm 1 mps 758 mmHg 71%
    20:00 +13°C° 0 mm 2 mps 758 mmHg 79%
    21:00 +12°C° 0 mm 2 mps 758 mmHg 86%
    22:00 +12°C° 0 mm 2 mps 758 mmHg 87%
    23:00 +12°C° 0 mm 1 mps 757 mmHg 88%

    10 June, Wednesday

    Time Temperature Precipitation Wind Pressure Humidity
    00:00 +11°C° 0 mm 1 mps 757 mmHg 89%
    01:00 +11°C° 0 mm 1 mps 757 mmHg 89%
    02:00 +11°C° 0 mm 1 mps 757 mmHg 88%
    03:00 +11°C° 0 mm 1 mps 756 mmHg 88%
    04:00 +10°C° 0 mm 2 mps 756 mmHg 88%
    05:00 +12°C° 0 mm 2 mps 756 mmHg 87%
    06:00 +12°C° 0 mm 2 mps 756 mmHg 86%
    07:00 +12°C° 0 mm 2 mps 756 mmHg 83%
    08:00 +13°C° 0 mm 2 mps 756 mmHg 80%
    09:00 +14°C° 0 mm 1 mps 756 mmHg 76%
    10:00 +14°C° 0.3 mm 2 mps 755 mmHg 76%
    11:00 +14°C° 0.3 mm 2 mps 755 mmHg 76%
    12:00 +14°C° 0.3 mm 3 mps 755 mmHg 75%
    13:00 +13°C° 0.5 mm 3 mps 754 mmHg 79%
    14:00 +13°C° 0.5 mm 2 mps 754 mmHg 82%
    15:00 +12°C° 0.5 mm 2 mps 753 mmHg 86%
    16:00 +12°C° 0.1 mm 2 mps 753 mmHg 87%
    17:00 +12°C° 0.1 mm 2 mps 752 mmHg 88%
    18:00 +12°C° 0.1 mm 2 mps 752 mmHg 90%
    19:00 +10°C° 0.2 mm 2 mps 751 mmHg 91%
    20:00 +10°C° 0.2 mm 2 mps 751 mmHg 93%
    21:00 +10°C° 0.2 mm 2 mps 750 mmHg 94%
    22:00 +10°C° 0.8 mm 3 mps 750 mmHg 95%
    23:00 +10°C° 0.8 mm 4 mps 749 mmHg 95%

    11 June, Thursday

    Time Temperature Precipitation Wind Pressure Humidity
    00:00 +10°C° 0.8 mm 4 mps 748 mmHg 96%
    01:00 +10°C° 1.2 mm 4 mps 748 mmHg 96%
    02:00 +10°C° 1.2 mm 4 mps 747 mmHg 96%
    03:00 +10°C° 1.2 mm 4 mps 746 mmHg 96%
    04:00 +10°C° 1.5 mm 4 mps 746 mmHg 96%
    05:00 +10°C° 1.5 mm 5 mps 745 mmHg 96%
    06:00 +10°C° 1.5 mm 5 mps 744 mmHg 96%
    07:00 +10°C° 2.4 mm 6 mps 744 mmHg 95%
    08:00 +10°C° 2.4 mm 7 mps 744 mmHg 95%
    09:00 +10°C° 2.4 mm 7 mps 743 mmHg 94%
    10:00 +10°C° 2.2 mm 8 mps 743 mmHg 94%
    11:00 +10°C° 2.2 mm 8 mps 743 mmHg 94%
    12:00 +11°C° 2.2 mm 8 mps 742 mmHg 93%
    13:00 +11°C° 1.9 mm 7 mps 742 mmHg 93%
    14:00 +11°C° 1.9 mm 6 mps 742 mmHg 93%
    15:00 +11°C° 1.9 mm 6 mps 742 mmHg 93%
    16:00 +12°C° 0.5 mm 5 mps 742 mmHg 91%
    17:00 +12°C° 0.5 mm 4 mps 742 mmHg 90%
    18:00 +12°C° 0.5 mm 4 mps 742 mmHg 89%
    19:00 +11°C° 0.1 mm 3 mps 742 mmHg 90%
    20:00 +10°C° 0.1 mm 2 mps 743 mmHg 92%
    21:00 +9°C° 0.1 mm 2 mps 743 mmHg 93%
    22:00 +10°C° 0 mm 1 mps 743 mmHg 93%
    23:00 +9°C° 0 mm 1 mps 743 mmHg 94%
    Show more